Vorticity
8 8 9 9 7 6 6 4 2 4 7 6 6 6 6 7 8 8 10 12 14 16 15 12 10 10 9 8 7 6 5 5 5 5 6 6 6 7 7 7 8 8 9 9 9 8 8 8 8 8 7 7 7 7 8 7 8 8 7 6 7 7 7 6 2 2 6 5 4 7 8 7 9 10 9 9 9 8 8 9 10 10 10 10 11
5 3 6 5 4 4 4 2 -0 1 5 8 7 6 5 5 5 5 4 4 7 12 16 17 15 14 13 11 10 9 8 7 7 6 6 6 7 8 8 8 8 8 8 8 9 9 8 7 7 7 7 7 7 7 8 8 7 8 8 7 8 8 7 7 4 3 6 8 4 4 5 5 6 9 9 8 8 7 7 7 8 9 9 9 10
13 7 7 5 4 5 6 3 -1 -0 4 7 9 8 6 6 5 5 6 7 5 4 4 6 6 7 8 9 9 10 10 9 8 7 7 6 6 6 6 7 7 7 7 7 8 8 8 8 8 7 7 6 6 6 5 6 7 7 8 8 8 8 8 7 7 5 6 9 8 6 5 4 2 4 5 7 8 7 6 7 7 7 8 9 9
14 12 11 9 6 6 7 6 3 4 7 9 11 10 8 8 3 -3 -1 5 7 6 4 2 2 3 3 5 7 8 8 10 10 11 9 6 4 4 4 4 4 5 6 7 8 9 10 11 12 12 13 12 11 10 8 7 7 6 7 7 7 8 8 8 8 8 7 9 10 9 8 7 6 5 4 3 5 6 6 6 8 7 6 6 7
7 9 10 8 7 6 4 3 2 4 5 5 7 7 7 7 4 -1 -2 1 4 6 6 5 5 6 8 9 6 1 -2 -1 2 8 12 10 7 5 4 4 3 4 5 4 4 5 7 10 12 12 12 14 15 15 15 13 12 11 10 9 9 8 8 9 8 9 9 11 13 13 11 10 9 9 9 6 5 6 5 4 5 7 7 6 5
5 5 6 6 5 5 4 2 -0 0 2 2 3 3 2 3 6 4 -0 1 5 6 6 8 6 3 2 3 3 1 -2 -5 -6 0 8 12 12 11 7 4 2 1 1 0 0 1 3 4 6 8 8 10 12 13 14 15 15 15 14 13 13 12 12 12 11 10 10 10 12 15 16 16 12 12 14 12 8 8 9 7 5 4 5 6 6
3 2 3 4 3 3 5 7 6 5 6 6 6 7 6 6 8 3 -6 -2 6 5 4 7 7 5 1 -2 -2 -1 -1 -3 -2 2 5 5 7 10 9 6 3 1 -1 -1 1 2 2 2 1 3 5 6 8 10 12 13 14 15 15 15 15 15 15 16 17 17 15 12 10 11 14 16 16 15 15 16 14 11 11 10 8 7 7 6 6
3 7 8 8 7 6 5 6 7 8 8 6 5 6 7 6 8 5 -3 -1 5 4 4 5 4 4 4 3 6 8 5 2 3 5 6 5 6 5 5 5 4 3 2 1 1 1 1 2 3 3 4 5 5 7 10 12 13 11 12 13 13 14 14 13 13 14 15 14 12 11 12 13 16 16 15 16 17 14 13 12 10 10 10 8 6
2 5 6 6 7 8 8 8 7 7 7 6 3 3 4 4 5 6 3 -1 -3 -1 4 6 4 2 -1 0 5 10 11 10 10 7 1 1 4 3 1 4 4 3 2 0 1 3 3 3 5 6 7 7 6 5 6 10 11 9 10 12 9 7 7 7 7 7 8 9 7 6 7 8 10 12 12 14 16 16 16 15 12 10 11 12 11
6 5 4 3 3 4 6 8 9 9 8 5 3 3 4 4 4 3 4 1 -3 -1 1 2 3 3 2 2 3 4 4 4 10 15 10 7 9 6 -1 1 4 4 3 4 5 6 6 5 5 6 8 9 8 6 5 7 10 9 9 9 4 1 3 4 4 4 3 3 2 1 1 1 3 5 6 9 12 14 16 17 15 12 11 12 12
9 9 7 3 1 1 1 -0 1 5 5 0 -2 -1 1 3 3 2 3 2 1 2 2 2 3 4 4 5 6 6 5 4 6 14 15 8 7 14 13 10 11 9 6 7 7 5 5 5 5 6 8 10 12 11 8 6 8 9 9 7 2 -0 2 3 3 3 1 1 3 3 1 0 -0 1 1 2 6 9 12 16 17 14 13 13 10
6 6 6 4 2 1 1 -1 -1 1 2 0 -1 -0 2 4 4 4 4 3 3 3 3 4 5 6 6 6 7 7 7 11 9 11 15 4 -2 20 34 21 12 10 7 7 7 6 6 7 8 8 7 9 12 13 12 10 9 10 9 8 4 -0 2 4 2 1 1 2 2 1 1 1 -0 1 2 1 2 5 7 12 15 13 13 13 11
9 8 8 7 7 7 7 7 7 7 7 7 6 6 6 6 5 6 5 4 5 5 5 5 3 5 6 6 9 8 6 11 9 8 17 12 4 24 39 22 6 6 6 7 8 8 9 9 9 8 7 10 11 9 11 13 13 12 9 8 6 2 3 6 3 2 3 2 -0 -2 -2 0 -0 -0 2 2 3 5 7 10 13 13 12 11 11
11 11 11 11 11 11 11 11 10 10 10 11 11 11 11 10 9 9 8 7 8 7 7 8 6 6 6 3 7 8 6 9 8 4 9 9 4 12 17 10 9 8 1 -0 1 3 6 9 10 9 8 10 9 7 9 13 17 17 10 6 6 4 4 6 5 5 5 1 -1 -1 -2 -1 -2 -2 -1 -0 2 7 10 11 12 12 12 12 10
13 13 12 12 12 11 11 11 10 10 10 10 10 10 11 12 11 12 11 11 11 9 9 9 8 7 7 5 5 7 6 6 6 8 10 7 7 10 2 0 12 6 -11 -13 -7 -4 1 4 5 6 7 8 8 7 9 14 20 19 9 4 5 5 5 6 6 5 3 1 1 0 -2 -3 -3 -3 -1 -0 2 7 11 13 11 10 11 11 11
13 13 12 12 11 10 11 10 9 10 9 8 9 8 8 9 8 9 10 10 10 10 10 10 10 10 9 6 6 7 9 10 10 11 11 6 10 17 9 2 4 -9 -26 -21 -8 -0 6 9 8 7 5 5 7 6 9 19 23 15 5 3 4 5 7 7 5 3 -0 -2 -1 -2 -2 -1 -1 0 2 4 6 10 12 12 9 8 9 9 9
12 12 12 12 11 10 10 10 9 10 10 10 11 10 10 10 9 9 10 10 10 10 9 9 9 9 10 10 10 10 11 13 12 7 3 -0 1 6 3 -2 -4 -10 -12 -1 10 13 13 12 11 7 3 5 8 9 14 23 21 9 2 4 6 6 5 0 -3 -4 -4 -2 -0 0 1 1 1 4 7 9 11 11 11 10 9 8 8 7 7
11 12 11 11 11 10 10 10 10 10 12 13 13 12 12 12 12 11 10 10 10 10 10 12 11 10 9 8 8 11 14 19 21 17 14 14 11 9 8 8 9 12 15 18 19 18 15 12 10 8 6 5 7 10 17 23 17 6 3 7 5 -0 -6 -9 -7 -2 1 4 4 3 3 4 6 9 11 11 12 9 7 8 8 6 6 5 4
11 11 11 11 11 11 11 12 13 13 13 14 13 13 13 12 12 12 11 11 11 9 8 8 7 7 9 10 14 21 23 23 23 21 18 16 15 13 13 15 16 16 18 17 16 17 18 15 14 14 14 11 11 15 23 25 14 1 2 6 1 -8 -11 -7 -1 3 5 8 8 7 8 8 9 9 9 8 8 6 5 6 5 4 4 4 3
11 11 11 11 11 12 12 12 12 12 12 12 11 11 11 12 11 11 12 11 10 10 12 15 20 22 22 22 22 16 9 10 15 19 17 14 15 16 16 16 15 12 10 11 12 13 15 17 17 15 14 15 17 18 18 19 15 7 3 1 -5 -12 -9 -1 4 8 11 12 11 9 9 8 7 7 6 5 5 5 6 6 6 6 7 8 10
12 11 11 11 11 11 11 10 9 9 8 8 9 9 10 11 10 10 11 10 10 15 17 14 13 13 11 13 9 1 3 14 17 13 10 9 8 8 6 3 1 -1 -0 3 7 11 14 18 20 17 10 9 13 15 13 14 13 5 -2 -4 -2 1 6 10 11 11 10 9 9 9 9 8 7 6 7 9 12 14 15 17 18 19 20 21 22
17 16 14 14 14 13 12 11 10 9 8 8 8 8 8 9 8 8 9 6 6 11 10 1 -3 -1 1 3 2 2 9 14 4 -5 -3 1 2 3 3 3 3 4 7 10 11 12 12 14 19 20 13 6 5 5 6 6 6 4 4 7 10 12 11 10 9 8 7 7 7 6 6 7 11 16 20 23 24 23 23 24 24 25 25 25 25
15 15 14 15 16 15 13 13 13 13 12 11 9 8 7 7 6 6 8 10 12 15 18 17 19 23 22 22 23 17 7 -4 -9 -3 7 11 11 12 14 15 15 16 16 15 14 14 16 18 19 20 18 13 8 4 3 5 8 11 10 10 9 7 6 7 6 5 4 4 6 10 16 21 25 27 24 20 17 15 15 16 17 18 19 18 18
11 11 12 13 12 12 11 11 12 12 12 10 10 10 10 10 12 14 16 19 22 24 24 23 24 24 22 24 28 24 11 4 5 10 11 11 13 16 19 22 24 25 26 25 22 22 22 20 17 14 15 16 16 15 13 12 11 9 7 6 6 5 4 3 4 7 12 17 23 27 29 28 25 21 17 16 17 19 19 20 20 19 19 17 15
7 8 11 10 9 10 11 11 12 12 13 14 16 17 19 22 25 26 26 26 26 21 15 13 15 14 10 9 14 18 16 13 12 11 13 19 26 29 31 31 29 27 25 22 18 15 14 12 11 11 11 12 13 13 13 11 8 5 4 4 3 5 9 14 21 27 30 30 30 28 26 25 24 23 24 25 26 27 28 28 29 28 29 26 22
6 8 10 11 12 14 17 20 23 24 27 30 31 32 34 35 35 33 28 28 28 21 12 9 10 8 7 11 17 18 15 12 14 20 26 29 26 22 18 15 11 10 10 9 8 8 8 8 8 8 8 8 8 7 6 5 5 5 7 12 17 22 26 28 29 28 27 26 26 26 25 25 24 21 21 20 18 18 19 19 20 22 25 28 29
16 20 22 24 26 29 33 36 36 36 38 39 36 33 31 27 26 24 19 18 22 19 10 7 9 11 11 11 10 11 15 19 22 22 18 11 6 4 4 5 6 7 8 8 8 8 8 7 8 7 6 6 7 8 10 12 15 19 22 24 25 24 22 22 22 23 25 25 23 21 20 20 20 20 19 18 17 16 15 15 15 14 13 15 18
35 34 33 32 34 38 39 35 30 26 26 24 20 17 14 10 9 9 8 13 20 18 10 6 7 7 7 9 12 17 20 18 12 6 3 2 4 6 7 8 8 9 10 10 11 11 11 11 11 12 13 16 18 21 23 23 22 21 19 18 18 20 21 24 25 24 23 21 20 20 21 22 23 24 23 23 24 23 22 22 23 21 17 12 11
28 27 30 31 31 28 23 18 14 13 15 15 11 9 9 11 11 9 10 14 15 9 4 3 5 9 14 20 22 18 11 5 3 4 6 7 7 6 6 7 9 10 12 13 13 13 14 15 16 18 19 20 19 17 16 15 14 15 17 20 24 27 27 26 24 22 22 22 21 19 16 15 16 18 18 19 21 24 24 24 26 28 26 22 19
20 25 30 31 29 26 22 19 17 13 11 10 10 11 15 19 18 14 12 11 8 5 5 10 16 23 24 19 12 6 4 5 6 5 5 4 4 5 7 9 10 11 12 13 14 15 16 17 17 17 16 16 16 16 16 17 20 24 28 30 30 28 26 23 21 20 19 17 14 12 12 14 17 20 20 17 15 16 17 18 20 24 27 27 27
34 34 34 29 27 27 22 18 21 23 21 18 19 21 21 18 14 10 8 8 10 15 20 24 24 20 13 7 6 6 7 6 4 3 5 6 7 9 10 10 12 13 15 17 19 19 20 19 18 17 18 21 24 25 24 27 30 31 29 27 25 23 21 19 17 17 17 17 17 18 20 21 20 20 21 21 18 14 11 10 11 12 15 18 21
28 30 28 19 14 14 9 4 8 15 17 16 15 15 15 14 12 10 10 14 19 21 21 19 13 8 6 6 8 7 4 4 6 8 10 11 12 14 15 16 18 20 21 21 21 21 20 21 22 24 27 29 29 27 27 28 29 25 22 22 21 19 18 16 16 17 18 18 20 21 20 21 21 20 19 20 21 18 12 8 7 6 6 9 13
13 20 21 15 13 14 10 7 5 2 3 7 11 14 16 17 17 16 15 18 20 16 11 8 6 6 7 5 4 4 5 7 9 10 13 17 18 18 19 20 22 23 20 19 21 23 24 26 29 30 30 29 26 22 21 21 22 22 23 23 20 16 13 11 13 15 18 22 26 28 26 23 20 17 15 15 19 23 20 14 9 8 8 10 15
8 12 13 14 14 11 8 7 6 3 5 13 16 13 7 6 11 16 16 14 10 6 6 8 7 6 6 4 4 6 5 4 8 14 19 20 18 17 16 15 15 17 18 18 22 25 26 28 30 31 30 26 21 18 18 21 25 25 21 16 12 8 8 12 15 18 20 21 24 28 32 32 30 26 22 16 14 18 21 21 17 15 13 11 14
4 7 13 15 10 3 0 3 6 7 9 10 8 4 2 7 14 16 11 6 6 8 9 9 6 5 6 6 5 4 2 4 10 16 19 19 16 14 11 8 7 11 17 21 23 24 25 28 33 34 28 19 14 15 20 24 22 17 12 10 7 6 10 17 17 13 12 14 16 18 23 27 29 30 29 27 25 22 21 19 17 15 13 9 10
-3 2 14 17 13 10 9 9 13 15 13 13 13 14 16 18 15 10 6 7 9 9 6 5 6 7 6 3 0 1 3 6 9 13 16 17 15 10 7 6 7 13 20 23 23 24 27 32 35 32 21 11 10 15 19 18 13 11 11 11 7 6 11 16 12 6 8 13 16 18 19 17 16 18 21 25 28 28 28 28 24 19 16 13 13
5 7 12 15 19 25 25 22 24 23 20 21 22 20 16 12 8 7 9 9 8 7 6 7 7 4 1 0 0 2 3 3 5 11 15 16 13 8 7 8 10 15 23 25 22 25 30 32 30 26 17 9 10 16 17 15 14 13 12 10 8 12 17 16 8 5 9 14 19 24 25 22 19 17 15 14 14 18 24 29 31 30 28 25 25
17 17 18 21 25 28 25 22 21 20 18 19 16 11 10 9 9 10 10 8 6 7 7 8 5 2 0 2 2 2 2 3 6 11 15 14 11 9 10 10 10 15 24 24 21 28 34 30 22 20 16 11 13 17 18 16 13 9 5 9 16 21 21 15 9 10 16 23 27 29 28 28 28 27 24 22 19 18 18 21 26 32 33 31 28
19 21 20 20 19 18 15 14 14 13 13 13 10 9 10 9 8 9 8 7 7 6 6 6 5 2 2 3 2 2 3 3 5 10 13 13 11 10 11 11 9 14 23 23 21 30 37 28 16 13 15 16 18 19 15 12 10 8 11 20 26 23 16 13 14 19 25 29 31 29 28 28 28 26 24 24 23 22 23 22 22 27 32 32 25
15 19 16 13 13 13 12 12 11 11 11 10 8 9 9 8 7 8 7 5 5 5 5 5 3 1 3 4 3 3 3 2 4 9 12 12 11 10 11 10 8 13 22 23 21 28 36 29 17 14 18 22 23 20 13 10 12 14 17 21 19 13 10 13 19 25 30 29 26 24 21 19 19 21 23 25 25 26 26 23 21 27 35 32 21
12 18 15 13 14 13 12 12 12 12 11 9 8 9 8 7 7 7 5 4 6 5 5 4 3 2 3 3 2 3 3 2 4 8 11 12 12 10 10 10 9 13 21 22 20 27 37 32 19 15 22 26 24 17 10 10 16 19 17 15 13 10 11 18 25 29 29 23 17 16 17 19 22 26 27 27 28 28 27 25 26 32 33 25 18
17 18 14 13 12 11 11 14 14 12 11 10 9 10 8 6 6 5 4 5 6 5 5 5 4 3 3 2 3 4 3 2 4 7 10 12 11 9 9 10 8 11 19 23 20 25 37 36 21 14 22 29 24 14 8 9 16 18 14 13 14 13 12 19 28 30 25 16 12 15 20 22 24 25 24 25 29 30 30 29 29 28 26 22 22
22 19 14 12 12 10 11 12 13 13 12 11 10 9 8 6 6 6 5 6 6 6 6 5 4 3 3 2 4 5 3 3 4 6 9 11 10 8 9 10 8 9 17 23 21 23 35 39 24 11 17 26 24 16 11 9 7 5 4 4 5 5 9 21 31 29 20 13 12 17 19 18 18 21 24 27 31 33 33 31 27 24 23 23 21
17 17 13 12 11 11 11 12 12 12 12 11 9 9 9 8 7 6 5 5 6 6 5 4 4 3 2 2 3 5 5 4 4 5 8 10 10 8 8 9 8 9 13 21 23 23 32 41 28 9 11 23 23 16 12 7 -1 -2 5 10 9 6 12 25 31 26 17 13 14 16 15 13 15 19 23 24 27 29 30 27 22 19 19 18 15
7 7 7 7 9 11 12 13 12 11 11 10 9 9 9 10 8 6 5 6 6 6 5 5 4 3 3 3 4 4 4 4 3 5 8 9 9 9 8 8 9 9 10 18 24 23 30 43 34 9 5 21 24 15 12 10 1 -4 4 12 14 15 21 28 31 25 16 12 13 15 14 12 13 16 18 18 19 20 18 17 17 16 15 14 14
1 1 3 3 5 7 11 13 14 13 11 10 10 10 10 10 8 6 5 5 6 6 6 5 4 3 3 4 3 3 4 4 3 4 8 10 9 9 8 7 9 9 8 15 23 21 27 43 39 15 6 21 28 20 17 15 6 -1 1 7 16 24 28 29 29 27 20 14 14 17 17 17 17 19 21 20 19 18 18 17 16 17 18 17 16
-0 1 3 3 2 3 7 12 14 13 11 10 10 10 9 9 7 6 5 5 5 6 6 5 5 4 3 4 4 3 3 4 3 4 7 10 10 10 7 6 9 9 7 12 21 21 22 36 42 24 11 20 31 25 15 11 10 7 5 9 20 28 23 16 17 21 19 17 18 18 19 21 20 17 15 10 4 6 14 18 15 12 14 14 13
1 1 0 0 1 4 8 12 14 14 12 10 10 9 10 10 8 6 5 5 5 5 6 5 5 5 4 4 5 4 3 4 3 3 6 9 11 11 8 5 7 9 7 9 17 21 20 30 41 32 17 21 31 24 8 7 17 17 7 8 22 25 10 -1 4 10 7 7 14 17 16 15 12 7 4 1 -4 0 16 25 19 11 8 9 12
1 0 1 2 3 6 10 14 16 15 12 10 9 9 9 9 7 6 6 5 4 5 6 5 5 5 4 4 5 4 4 4 3 2 5 9 11 12 10 6 5 9 8 7 13 20 21 25 37 38 27 22 25 21 9 10 22 20 5 2 18 23 4 -8 4 14 6 -2 2 6 5 2 1 -1 -0 -1 -2 4 18 24 16 6 6 13 17
2 3 4 4 5 7 11 14 15 14 11 10 9 9 9 9 8 7 6 5 5 6 6 5 5 5 5 5 5 5 4 4 3 3 5 8 10 12 12 8 4 6 8 7 10 18 21 22 31 43 40 23 13 14 15 14 18 20 9 1 11 20 9 -7 -3 11 15 10 6 3 1 0 0 -1 -2 -4 -6 -0 14 21 15 4 3 11 14
7 8 8 8 9 10 10 11 13 13 11 9 8 9 8 8 8 7 6 6 6 6 6 5 5 5 5 5 6 6 5 5 4 3 4 7 10 11 13 10 5 4 7 8 8 14 21 21 26 42 48 28 7 5 13 11 9 16 18 9 6 15 16 5 -6 -5 5 12 10 2 -2 -1 -0 0 3 5 2 2 10 20 20 12 9 12 11
Height
5712 5712 5712 5713 5713 5714 5714 5715 5715 5716 5716 5717 5717 5717 5717 5717 5717 5718 5719 5719 5719 5719 5720 5720 5720 5720 5721 5721 5721 5722 5722 5723 5723 5724 5725 5726 5726 5727 5727 5728 5728 5729 5729 5729 5730 5730 5730 5731 5731 5731 5732 5733 5733 5734 5734 5735 5735 5736 5736 5737 5738 5739 5740 5742 5744 5744 5743 5743 5744 5744 5744 5744 5743 5743 5744 5744 5745 5745 5747 5748 5749 5749 5750 5751 5751
5708 5708 5709 5709 5710 5711 5712 5712 5712 5713 5713 5714 5714 5714 5714 5714 5714 5715 5715 5716 5716 5717 5717 5717 5717 5718 5718 5718 5718 5718 5719 5719 5720 5720 5721 5722 5722 5722 5723 5723 5724 5724 5725 5725 5725 5725 5726 5726 5726 5727 5727 5728 5728 5729 5729 5730 5730 5731 5731 5732 5732 5733 5734 5736 5738 5739 5739 5739 5739 5739 5739 5739 5739 5739 5739 5739 5740 5740 5741 5742 5743 5744 5745 5746 5746
5704 5704 5705 5706 5706 5707 5708 5708 5709 5709 5710 5710 5710 5710 5710 5711 5711 5711 5712 5712 5713 5713 5714 5714 5715 5715 5715 5715 5715 5715 5715 5716 5716 5716 5717 5717 5717 5718 5718 5719 5719 5719 5720 5720 5720 5720 5720 5721 5721 5722 5722 5723 5723 5724 5724 5725 5725 5726 5726 5727 5727 5728 5728 5729 5731 5732 5733 5733 5733 5733 5734 5734 5734 5734 5734 5734 5734 5735 5735 5735 5736 5738 5739 5740 5741
5700 5701 5702 5702 5702 5703 5703 5704 5705 5706 5706 5707 5707 5707 5707 5707 5708 5708 5708 5709 5709 5710 5710 5711 5711 5712 5712 5712 5712 5712 5712 5712 5713 5713 5713 5713 5713 5713 5713 5714 5714 5714 5715 5715 5715 5715 5715 5715 5716 5716 5716 5717 5717 5718 5719 5719 5720 5720 5720 5721 5721 5722 5722 5723 5724 5725 5727 5728 5727 5727 5728 5728 5728 5728 5728 5729 5729 5729 5730 5730 5730 5731 5732 5734 5735
5696 5697 5697 5698 5698 5699 5699 5700 5701 5702 5702 5703 5703 5703 5703 5704 5704 5705 5705 5705 5705 5705 5706 5706 5707 5707 5708 5708 5708 5708 5708 5708 5709 5709 5708 5708 5708 5708 5709 5709 5709 5709 5710 5710 5710 5710 5710 5710 5710 5710 5710 5710 5711 5711 5712 5713 5713 5714 5714 5714 5715 5715 5716 5716 5717 5718 5720 5721 5721 5721 5721 5722 5722 5721 5722 5722 5722 5723 5724 5724 5724 5724 5725 5726 5728
5692 5692 5693 5693 5694 5694 5694 5695 5696 5696 5697 5698 5699 5699 5700 5700 5701 5701 5702 5701 5700 5700 5701 5701 5702 5703 5703 5703 5703 5704 5704 5704 5704 5704 5704 5704 5704 5704 5704 5704 5704 5705 5705 5705 5705 5705 5705 5705 5705 5705 5705 5705 5705 5705 5705 5706 5706 5707 5707 5708 5708 5709 5710 5710 5710 5712 5713 5715 5715 5715 5715 5715 5716 5716 5715 5715 5715 5716 5716 5717 5718 5718 5719 5720 5721
5687 5687 5687 5688 5688 5689 5690 5690 5690 5691 5691 5693 5694 5694 5695 5696 5696 5697 5696 5695 5695 5695 5695 5695 5696 5697 5698 5699 5699 5699 5699 5700 5700 5699 5699 5699 5699 5699 5699 5699 5699 5700 5700 5700 5701 5701 5701 5700 5700 5700 5701 5701 5701 5701 5700 5700 5700 5701 5701 5701 5701 5702 5703 5704 5704 5705 5706 5707 5709 5709 5709 5709 5709 5709 5709 5708 5709 5709 5709 5710 5711 5712 5712 5713 5714
5681 5681 5682 5682 5683 5683 5684 5685 5686 5686 5686 5687 5688 5689 5689 5691 5691 5692 5691 5691 5690 5690 5689 5689 5690 5692 5693 5694 5694 5694 5694 5695 5695 5695 5695 5695 5695 5695 5694 5694 5695 5695 5695 5695 5695 5695 5695 5695 5695 5695 5695 5696 5696 5696 5696 5696 5696 5696 5695 5695 5695 5696 5696 5697 5698 5699 5699 5700 5702 5703 5703 5703 5703 5703 5702 5702 5702 5702 5702 5703 5705 5705 5705 5706 5707
5676 5675 5676 5676 5677 5678 5679 5679 5680 5681 5681 5681 5682 5683 5684 5685 5686 5686 5686 5686 5685 5684 5684 5683 5684 5685 5687 5688 5689 5689 5689 5690 5690 5690 5690 5690 5690 5689 5689 5689 5689 5690 5690 5690 5690 5690 5690 5690 5690 5690 5689 5690 5690 5690 5690 5690 5691 5691 5691 5690 5690 5690 5691 5691 5692 5692 5693 5693 5695 5696 5697 5697 5697 5696 5696 5696 5696 5696 5696 5696 5698 5698 5698 5699 5700
5669 5669 5670 5670 5671 5672 5673 5674 5675 5675 5676 5676 5676 5677 5678 5678 5679 5680 5680 5680 5679 5680 5680 5679 5678 5679 5680 5682 5683 5683 5683 5684 5684 5684 5684 5684 5684 5683 5683 5683 5684 5684 5684 5684 5684 5683 5683 5683 5684 5684 5683 5683 5683 5683 5683 5683 5684 5684 5685 5685 5685 5685 5685 5685 5686 5686 5686 5687 5688 5688 5689 5690 5690 5689 5689 5690 5690 5690 5690 5689 5690 5691 5691 5692 5693
5663 5663 5663 5664 5664 5665 5667 5668 5669 5670 5670 5670 5671 5672 5672 5673 5673 5673 5674 5674 5673 5673 5674 5674 5674 5673 5674 5675 5676 5676 5676 5677 5678 5678 5678 5678 5677 5677 5677 5677 5677 5677 5678 5677 5677 5677 5677 5677 5677 5677 5677 5676 5676 5676 5676 5676 5676 5677 5678 5678 5679 5679 5679 5679 5679 5680 5680 5681 5681 5681 5682 5683 5682 5682 5682 5682 5682 5683 5683 5683 5683 5683 5683 5684 5685
5656 5656 5657 5657 5658 5659 5660 5661 5662 5663 5663 5664 5664 5665 5666 5667 5667 5667 5667 5667 5667 5667 5667 5668 5668 5667 5667 5668 5669 5669 5669 5670 5671 5671 5671 5671 5671 5670 5670 5670 5670 5671 5671 5671 5671 5671 5671 5671 5670 5670 5670 5669 5669 5669 5669 5669 5669 5669 5670 5671 5671 5672 5672 5672 5672 5673 5673 5673 5674 5675 5675 5675 5675 5675 5674 5674 5674 5675 5675 5675 5675 5675 5675 5675 5676
5648 5649 5649 5650 5650 5651 5652 5654 5655 5656 5656 5657 5657 5658 5659 5660 5660 5660 5660 5661 5661 5660 5660 5661 5661 5660 5660 5660 5661 5662 5663 5663 5664 5663 5663 5664 5664 5664 5664 5663 5664 5664 5664 5664 5664 5664 5664 5664 5664 5664 5663 5662 5662 5662 5661 5661 5661 5662 5662 5663 5663 5664 5664 5664 5664 5664 5665 5665 5666 5667 5667 5666 5667 5667 5666 5665 5666 5666 5666 5666 5666 5666 5667 5667 5668
5640 5641 5641 5641 5642 5643 5645 5646 5647 5647 5648 5649 5650 5651 5652 5652 5653 5653 5654 5654 5654 5654 5654 5654 5654 5653 5653 5653 5654 5655 5656 5656 5656 5656 5656 5657 5658 5658 5658 5657 5657 5657 5657 5657 5657 5658 5657 5657 5657 5657 5657 5656 5655 5654 5654 5654 5654 5654 5655 5655 5656 5656 5656 5656 5656 5656 5656 5657 5658 5659 5659 5658 5659 5659 5658 5657 5657 5657 5657 5656 5656 5657 5658 5659 5660
5632 5632 5633 5633 5634 5635 5637 5638 5639 5639 5640 5641 5642 5643 5643 5644 5645 5646 5646 5646 5646 5646 5647 5647 5647 5646 5646 5646 5647 5648 5648 5649 5649 5649 5649 5649 5650 5651 5652 5651 5651 5650 5650 5650 5650 5650 5650 5650 5650 5650 5650 5649 5648 5647 5647 5646 5647 5647 5647 5648 5648 5648 5648 5648 5647 5647 5647 5647 5648 5649 5649 5649 5649 5650 5650 5649 5648 5647 5647 5647 5646 5647 5648 5649 5651
5623 5624 5625 5626 5627 5628 5629 5630 5631 5632 5632 5633 5634 5634 5635 5636 5637 5638 5639 5639 5639 5639 5639 5639 5639 5639 5639 5640 5640 5641 5641 5641 5642 5642 5642 5642 5643 5644 5644 5644 5644 5643 5643 5642 5642 5643 5642 5642 5642 5642 5642 5641 5640 5640 5639 5639 5639 5639 5639 5640 5640 5640 5640 5639 5639 5639 5638 5638 5638 5639 5639 5639 5639 5639 5640 5639 5639 5638 5637 5637 5637 5636 5637 5639 5640
5615 5616 5617 5618 5619 5620 5621 5622 5623 5624 5625 5625 5626 5626 5627 5628 5628 5629 5630 5631 5631 5631 5632 5631 5631 5632 5633 5633 5633 5633 5634 5634 5635 5635 5635 5635 5636 5636 5636 5636 5636 5635 5635 5635 5635 5634 5634 5633 5633 5633 5633 5633 5632 5631 5631 5630 5631 5631 5631 5632 5632 5632 5632 5631 5630 5629 5629 5628 5628 5628 5628 5628 5628 5629 5629 5629 5629 5627 5626 5628 5628 5626 5626 5629 5630
5607 5608 5610 5611 5612 5612 5613 5614 5615 5616 5617 5617 5618 5618 5619 5620 5620 5621 5622 5622 5623 5624 5624 5624 5624 5625 5626 5626 5626 5626 5626 5627 5627 5628 5628 5628 5628 5628 5628 5628 5627 5627 5627 5627 5626 5626 5625 5625 5624 5624 5624 5623 5623 5623 5622 5622 5622 5623 5623 5623 5623 5624 5623 5621 5620 5619 5618 5618 5617 5617 5617 5617 5617 5617 5617 5617 5617 5616 5615 5618 5617 5616 5617 5619 5619
5600 5601 5602 5603 5604 5605 5605 5606 5607 5608 5609 5609 5610 5610 5611 5612 5613 5614 5614 5615 5615 5616 5616 5617 5617 5618 5618 5618 5619 5619 5620 5620 5620 5620 5620 5620 5620 5620 5619 5619 5619 5618 5618 5618 5618 5617 5616 5616 5615 5614 5614 5614 5613 5613 5613 5613 5613 5614 5614 5614 5615 5615 5613 5611 5610 5609 5608 5607 5606 5606 5606 5606 5605 5605 5604 5605 5605 5604 5604 5605 5605 5605 5607 5608 5607
5592 5593 5594 5595 5596 5597 5597 5598 5599 5599 5600 5601 5602 5602 5603 5604 5606 5607 5607 5607 5608 5609 5610 5611 5611 5611 5611 5611 5612 5613 5613 5613 5613 5613 5613 5613 5612 5612 5611 5611 5610 5610 5610 5609 5609 5609 5608 5607 5606 5606 5605 5605 5604 5604 5604 5604 5604 5605 5605 5605 5605 5604 5602 5600 5599 5598 5597 5597 5596 5596 5595 5594 5594 5593 5592 5591 5591 5591 5591 5592 5592 5593 5595 5596 5596
5585 5585 5587 5588 5589 5589 5589 5590 5590 5591 5592 5593 5594 5595 5596 5597 5598 5599 5600 5600 5601 5602 5604 5604 5604 5604 5604 5604 5605 5606 5606 5606 5606 5606 5606 5605 5605 5605 5604 5603 5602 5602 5602 5601 5600 5600 5599 5598 5598 5597 5596 5596 5596 5595 5595 5595 5595 5595 5595 5595 5594 5593 5591 5590 5588 5587 5586 5586 5586 5585 5584 5583 5582 5581 5579 5578 5577 5577 5577 5578 5579 5580 5582 5584 5584
5577 5578 5579 5580 5581 5581 5581 5582 5583 5584 5585 5586 5587 5588 5588 5589 5590 5591 5592 5593 5595 5596 5597 5598 5597 5598 5598 5598 5599 5600 5600 5599 5599 5599 5599 5599 5598 5597 5596 5595 5594 5593 5593 5592 5591 5590 5590 5589 5588 5588 5587 5587 5587 5586 5586 5585 5585 5585 5584 5583 5582 5581 5579 5578 5577 5575 5574 5574 5573 5573 5572 5571 5570 5569 5567 5566 5564 5564 5563 5564 5566 5567 5569 5571 5573
5570 5571 5572 5572 5573 5573 5574 5574 5575 5576 5577 5578 5579 5580 5581 5582 5583 5584 5585 5586 5588 5589 5590 5591 5591 5591 5592 5592 5592 5593 5593 5593 5593 5593 5593 5592 5590 5589 5588 5587 5585 5585 5584 5584 5583 5582 5581 5580 5579 5579 5578 5578 5577 5577 5576 5575 5574 5574 5573 5572 5570 5569 5568 5567 5565 5563 5562 5561 5560 5560 5559 5557 5557 5556 5555 5553 5552 5551 5551 5552 5553 5555 5557 5560 5562
5563 5563 5564 5564 5565 5566 5566 5566 5567 5568 5568 5570 5571 5572 5573 5575 5576 5577 5578 5579 5581 5582 5583 5584 5585 5586 5586 5586 5587 5587 5588 5588 5588 5587 5586 5585 5583 5582 5581 5579 5578 5577 5577 5576 5575 5574 5573 5571 5570 5570 5569 5568 5567 5566 5565 5565 5563 5563 5562 5560 5559 5558 5556 5555 5553 5551 5549 5548 5547 5546 5545 5543 5543 5543 5542 5541 5540 5540 5540 5540 5542 5544 5547 5549 5552
5555 5555 5555 5556 5557 5557 5557 5558 5558 5559 5560 5561 5563 5564 5566 5567 5569 5570 5571 5573 5574 5576 5577 5579 5580 5581 5581 5581 5582 5582 5582 5582 5582 5581 5580 5579 5577 5576 5575 5574 5572 5571 5570 5569 5567 5566 5564 5563 5562 5561 5559 5558 5557 5556 5555 5554 5553 5551 5550 5548 5547 5546 5544 5543 5541 5539 5537 5536 5534 5533 5532 5530 5529 5529 5529 5529 5529 5529 5530 5530 5532 5534 5536 5538 5541
5546 5546 5546 5547 5548 5548 5548 5549 5550 5550 5552 5553 5555 5557 5559 5561 5562 5564 5566 5567 5568 5570 5573 5574 5575 5576 5576 5576 5576 5577 5577 5576 5576 5575 5574 5573 5572 5571 5570 5568 5566 5565 5563 5561 5560 5558 5556 5555 5553 5552 5550 5548 5547 5546 5545 5543 5542 5540 5539 5536 5535 5534 5532 5530 5529 5527 5526 5524 5522 5520 5520 5519 5518 5518 5519 5519 5519 5519 5520 5521 5522 5524 5526 5528 5530
5538 5538 5538 5538 5539 5539 5540 5541 5542 5543 5545 5547 5549 5551 5554 5556 5558 5559 5561 5562 5564 5566 5568 5570 5571 5571 5572 5572 5571 5572 5572 5571 5571 5570 5569 5569 5567 5566 5564 5563 5560 5558 5556 5554 5552 5551 5549 5547 5544 5542 5540 5539 5537 5535 5534 5532 5531 5529 5527 5525 5523 5522 5520 5518 5517 5515 5514 5513 5511 5510 5510 5509 5509 5509 5509 5509 5509 5510 5510 5511 5513 5515 5517 5519 5521
5530 5530 5530 5531 5531 5533 5534 5535 5537 5539 5541 5543 5545 5547 5550 5552 5554 5556 5557 5559 5560 5562 5564 5566 5567 5567 5567 5567 5567 5567 5567 5566 5566 5565 5565 5564 5563 5561 5559 5557 5555 5552 5550 5548 5546 5543 5541 5538 5535 5532 5531 5529 5527 5525 5523 5521 5520 5518 5516 5514 5512 5511 5509 5508 5507 5505 5504 5503 5502 5501 5501 5501 5501 5501 5500 5500 5500 5501 5501 5502 5504 5506 5508 5510 5512
5523 5524 5524 5525 5526 5528 5529 5531 5532 5534 5536 5538 5541 5543 5546 5548 5551 5553 5554 5556 5558 5559 5561 5562 5562 5562 5562 5563 5563 5563 5563 5562 5562 5561 5560 5559 5557 5556 5554 5552 5550 5547 5544 5541 5538 5535 5532 5529 5526 5524 5522 5520 5518 5515 5513 5511 5509 5507 5505 5503 5502 5501 5500 5499 5498 5497 5495 5495 5494 5494 5493 5493 5493 5493 5493 5493 5493 5493 5493 5494 5496 5497 5499 5501 5504
5518 5519 5520 5521 5522 5523 5525 5526 5528 5530 5533 5536 5538 5540 5543 5545 5548 5550 5551 5553 5554 5555 5556 5557 5558 5558 5559 5559 5560 5560 5559 5559 5558 5557 5555 5554 5553 5551 5549 5547 5544 5541 5537 5533 5530 5526 5524 5521 5518 5515 5513 5511 5509 5506 5504 5501 5500 5498 5496 5495 5494 5493 5492 5491 5490 5489 5488 5487 5487 5486 5486 5485 5485 5485 5485 5485 5485 5485 5486 5487 5489 5490 5492 5494 5497
5514 5515 5516 5517 5519 5520 5521 5522 5524 5527 5531 5533 5536 5538 5540 5543 5545 5546 5548 5549 5551 5552 5553 5554 5555 5555 5556 5556 5557 5556 5556 5555 5554 5553 5552 5550 5548 5546 5543 5540 5537 5533 5529 5525 5522 5519 5516 5513 5510 5507 5505 5502 5500 5497 5495 5494 5492 5491 5489 5488 5487 5486 5485 5484 5483 5482 5481 5481 5480 5479 5478 5477 5477 5477 5478 5478 5478 5479 5479 5481 5482 5484 5486 5488 5491
5512 5512 5514 5515 5517 5518 5519 5520 5522 5525 5528 5531 5533 5535 5538 5540 5542 5543 5545 5546 5548 5549 5550 5551 5552 5553 5553 5553 5553 5553 5553 5552 5551 5550 5548 5546 5543 5540 5536 5533 5530 5526 5522 5518 5515 5511 5508 5505 5502 5499 5496 5494 5492 5490 5488 5487 5486 5485 5484 5483 5481 5480 5479 5478 5477 5476 5474 5473 5472 5471 5470 5469 5469 5469 5470 5471 5471 5472 5473 5474 5476 5478 5480 5482 5485
5511 5512 5513 5515 5516 5517 5518 5520 5521 5523 5526 5528 5531 5533 5535 5537 5539 5541 5542 5544 5545 5546 5548 5548 5549 5550 5550 5550 5550 5550 5550 5549 5548 5546 5544 5541 5537 5534 5530 5527 5523 5519 5515 5510 5507 5503 5500 5497 5494 5491 5488 5487 5485 5483 5482 5482 5481 5480 5479 5478 5477 5475 5474 5473 5471 5470 5468 5466 5465 5464 5463 5462 5462 5462 5463 5463 5464 5465 5466 5468 5469 5471 5473 5476 5479
5512 5513 5514 5515 5516 5517 5519 5520 5522 5524 5525 5527 5529 5531 5533 5535 5537 5539 5540 5542 5543 5544 5545 5546 5547 5547 5547 5547 5548 5548 5547 5546 5544 5542 5539 5535 5532 5529 5526 5521 5516 5512 5507 5502 5498 5495 5492 5488 5486 5483 5482 5480 5479 5479 5478 5477 5476 5476 5475 5474 5473 5471 5470 5468 5467 5465 5463 5461 5459 5458 5456 5456 5455 5455 5456 5457 5458 5459 5460 5461 5463 5465 5467 5470 5473
5512 5513 5514 5515 5516 5518 5519 5520 5522 5523 5525 5526 5528 5530 5531 5533 5535 5536 5538 5540 5541 5542 5543 5543 5544 5544 5545 5545 5545 5545 5544 5542 5540 5537 5534 5531 5528 5525 5521 5516 5511 5506 5501 5496 5491 5487 5484 5482 5479 5477 5476 5476 5475 5475 5474 5473 5472 5471 5471 5470 5469 5468 5466 5465 5463 5461 5459 5457 5455 5453 5452 5451 5450 5450 5450 5451 5451 5452 5453 5455 5457 5459 5461 5464 5467
5512 5513 5514 5515 5515 5517 5518 5519 5520 5521 5523 5524 5526 5527 5529 5531 5533 5535 5536 5538 5539 5540 5540 5541 5542 5542 5543 5543 5542 5541 5540 5538 5536 5533 5530 5527 5523 5519 5515 5511 5507 5502 5496 5491 5486 5482 5479 5476 5474 5473 5473 5472 5471 5471 5470 5469 5469 5468 5468 5467 5466 5464 5463 5461 5459 5458 5455 5453 5451 5449 5447 5446 5446 5446 5446 5446 5446 5446 5447 5449 5450 5453 5455 5458 5461
5512 5512 5513 5513 5514 5515 5516 5517 5518 5519 5521 5522 5524 5526 5528 5530 5531 5533 5534 5535 5536 5537 5538 5539 5540 5540 5540 5540 5539 5538 5536 5534 5532 5529 5525 5522 5518 5515 5511 5507 5503 5498 5492 5487 5483 5479 5475 5472 5471 5470 5469 5469 5468 5467 5467 5466 5466 5465 5464 5463 5462 5460 5459 5457 5456 5454 5451 5449 5446 5444 5443 5442 5442 5441 5442 5442 5442 5442 5443 5444 5445 5447 5449 5452 5456
5511 5511 5512 5512 5512 5513 5514 5515 5517 5518 5520 5521 5523 5525 5527 5528 5529 5531 5532 5533 5534 5535 5536 5537 5537 5537 5537 5536 5535 5534 5532 5530 5528 5524 5521 5518 5514 5511 5508 5504 5499 5493 5488 5483 5479 5475 5472 5469 5468 5467 5467 5466 5465 5464 5464 5463 5463 5462 5461 5460 5458 5457 5456 5454 5452 5450 5447 5444 5442 5440 5439 5438 5438 5438 5438 5438 5438 5438 5439 5440 5441 5443 5445 5448 5452
5510 5510 5511 5511 5512 5513 5514 5515 5517 5518 5519 5521 5522 5524 5525 5526 5527 5528 5530 5531 5532 5533 5534 5534 5534 5534 5533 5533 5532 5531 5529 5527 5524 5521 5518 5515 5511 5508 5505 5500 5495 5490 5485 5480 5475 5472 5468 5466 5465 5465 5464 5463 5462 5462 5461 5461 5460 5459 5458 5457 5455 5454 5453 5451 5449 5446 5443 5441 5439 5437 5436 5436 5435 5435 5435 5435 5435 5435 5436 5437 5438 5440 5442 5445 5448
5509 5509 5510 5511 5512 5513 5514 5515 5516 5517 5518 5520 5521 5522 5523 5524 5525 5527 5528 5529 5531 5531 5531 5531 5531 5531 5530 5530 5529 5528 5527 5524 5522 5519 5515 5512 5508 5505 5501 5497 5493 5487 5482 5477 5472 5469 5465 5464 5463 5462 5461 5460 5459 5459 5459 5458 5458 5457 5456 5454 5453 5452 5451 5448 5445 5442 5440 5438 5437 5436 5435 5435 5434 5433 5433 5432 5432 5433 5433 5434 5436 5437 5439 5443 5447
5508 5508 5510 5511 5512 5513 5514 5515 5515 5516 5517 5518 5520 5521 5522 5523 5524 5525 5527 5528 5529 5529 5529 5528 5528 5528 5528 5527 5527 5526 5524 5522 5519 5516 5512 5509 5505 5502 5498 5494 5490 5485 5480 5474 5470 5466 5463 5461 5460 5459 5458 5457 5457 5457 5457 5456 5456 5455 5454 5453 5452 5450 5448 5445 5442 5440 5438 5437 5437 5436 5435 5434 5433 5432 5431 5431 5431 5431 5432 5433 5434 5436 5438 5442 5446
5506 5508 5509 5509 5510 5511 5512 5513 5514 5515 5516 5518 5519 5520 5521 5522 5523 5524 5525 5526 5526 5526 5526 5525 5525 5525 5525 5525 5524 5523 5521 5519 5516 5513 5510 5506 5503 5499 5495 5491 5487 5483 5478 5473 5468 5464 5461 5459 5458 5457 5456 5455 5455 5455 5455 5455 5454 5454 5453 5452 5450 5448 5446 5443 5441 5439 5438 5438 5437 5436 5435 5434 5433 5432 5431 5430 5430 5431 5431 5432 5434 5436 5439 5442 5445
5505 5506 5507 5508 5509 5510 5511 5512 5513 5514 5515 5517 5518 5519 5520 5521 5522 5523 5523 5524 5524 5524 5523 5523 5523 5523 5523 5522 5521 5520 5518 5516 5514 5511 5507 5504 5500 5497 5493 5489 5485 5481 5476 5471 5466 5462 5459 5457 5456 5456 5454 5453 5453 5453 5454 5454 5453 5452 5452 5450 5448 5447 5444 5442 5440 5439 5439 5438 5438 5437 5436 5435 5434 5433 5432 5432 5432 5432 5432 5434 5435 5438 5441 5443 5446
5504 5505 5506 5507 5508 5509 5509 5510 5511 5513 5514 5515 5517 5518 5519 5520 5520 5521 5521 5522 5521 5521 5521 5520 5521 5521 5520 5520 5519 5517 5515 5513 5511 5509 5505 5502 5498 5495 5491 5488 5484 5480 5475 5470 5466 5461 5458 5456 5455 5454 5453 5452 5452 5452 5452 5452 5452 5451 5451 5449 5448 5446 5444 5441 5440 5440 5440 5439 5439 5439 5438 5437 5436 5436 5435 5434 5434 5435 5435 5437 5438 5441 5443 5446 5449
5503 5504 5505 5506 5507 5508 5509 5509 5510 5511 5512 5514 5515 5516 5517 5518 5519 5519 5519 5519 5519 5519 5518 5518 5518 5518 5518 5517 5516 5514 5513 5511 5509 5507 5504 5500 5497 5493 5490 5486 5482 5478 5474 5470 5465 5461 5457 5454 5453 5452 5451 5451 5450 5450 5451 5451 5451 5451 5450 5449 5448 5446 5443 5441 5441 5441 5440 5440 5440 5440 5440 5440 5439 5439 5438 5438 5438 5439 5440 5441 5442 5444 5446 5449 5451
5503 5504 5504 5505 5506 5507 5508 5508 5509 5510 5511 5512 5513 5515 5515 5516 5516 5517 5517 5517 5517 5516 5516 5516 5516 5516 5515 5515 5514 5512 5511 5509 5507 5505 5502 5499 5496 5492 5488 5484 5481 5477 5473 5469 5465 5460 5457 5453 5452 5451 5450 5449 5449 5449 5450 5450 5450 5450 5450 5449 5448 5445 5444 5443 5442 5442 5442 5442 5442 5442 5442 5442 5442 5441 5441 5442 5442 5443 5444 5445 5446 5448 5450 5452 5454
5502 5502 5503 5504 5505 5506 5506 5507 5508 5509 5509 5511 5511 5512 5513 5513 5514 5514 5514 5515 5515 5514 5514 5514 5514 5514 5513 5512 5511 5510 5509 5507 5505 5503 5501 5498 5495 5491 5487 5484 5480 5476 5472 5468 5464 5460 5456 5453 5451 5450 5449 5448 5448 5448 5449 5449 5450 5450 5450 5449 5448 5446 5445 5445 5445 5444 5444 5444 5444 5444 5444 5444 5445 5445 5445 5446 5446 5447 5448 5449 5450 5452 5453 5455 5457
5501 5501 5502 5503 5503 5504 5505 5505 5506 5507 5508 5509 5509 5510 5511 5511 5511 5512 5512 5513 5513 5512 5512 5512 5512 5511 5511 5510 5509 5508 5507 5505 5504 5502 5499 5497 5494 5490 5487 5483 5480 5476 5472 5468 5464 5460 5456 5453 5450 5449 5448 5447 5447 5447 5448 5449 5449 5449 5449 5449 5448 5447 5447 5447 5447 5447 5447 5447 5447 5447 5447 5447 5448 5448 5449 5450 5450 5451 5452 5453 5454 5455 5457 5459 5461
5499 5500 5501 5501 5502 5502 5503 5503 5504 5505 5506 5507 5507 5508 5509 5509 5509 5510 5510 5510 5510 5510 5510 5510 5509 5509 5508 5508 5507 5506 5505 5503 5502 5500 5498 5495 5492 5489 5486 5483 5479 5476 5472 5468 5464 5460 5456 5453 5450 5448 5447 5447 5446 5447 5447 5448 5448 5449 5449 5449 5449 5448 5448 5448 5449 5450 5450 5450 5450 5450 5450 5451 5451 5452 5452 5453 5453 5454 5455 5456 5457 5458 5460 5461 5463
5498 5498 5499 5499 5500 5500 5501 5502 5502 5503 5504 5505 5505 5506 5507 5507 5507 5508 5508 5508 5508 5508 5508 5508 5507 5507 5506 5505 5505 5504 5503 5501 5500 5498 5496 5494 5491 5488 5485 5482 5479 5475 5472 5468 5464 5460 5457 5453 5450 5448 5447 5446 5446 5446 5447 5447 5447 5448 5449 5449 5449 5449 5449 5449 5450 5451 5451 5452 5452 5452 5453 5453 5454 5454 5455 5455 5456 5456 5457 5458 5459 5460 5461 5463 5465
5496 5496 5497 5497 5498 5498 5499 5500 5500 5501 5502 5503 5503 5504 5504 5505 5505 5505 5505 5505 5506 5506 5506 5505 5505 5504 5504 5503 5502 5501 5500 5499 5498 5496 5495 5493 5490 5488 5484 5481 5478 5475 5471 5468 5464 5461 5457 5454 5450 5448 5446 5446 5446 5446 5446 5446 5447 5448 5448 5449 5449 5449 5450 5450 5451 5452 5452 5453 5454 5454 5455 5455 5455 5456 5457 5457 5458 5458 5459 5460 5461 5462 5463 5465 5466